www.pogodaiklimat.ru

Погода и климат >> Архив погоды >> Мексика >> Sn. Cristobal Las Casas


ПОГОДА в Sn. Cristobal Las Casas

  • Прогноз погоды в Sn. Cristobal Las Casas
  • Монитор погоды в Sn. Cristobal Las Casas
  • Климат города

АРХИВ ПОГОДЫ в Sn. Cristobal Las Casas

Время (UTC), дата Ветер
(напр.,м/с)
 
Видим.   Явления Облачность Т
(С)
Тd
(С)
f
(%)
Тe
(С)
Тes
(С)
Комфортность P
(гПа)
Po
(гПа)
Тmin
(С)
Tmax
(С)
R
(мм)
R24
(мм)
S
(см)
12 12.12 штиль 0 6000 м ясно +6.0 +5.8 99 +5 +5 1026.2 797.5 +5.0 +16.6
15 12.12 штиль 0 10 км ясно +11.0 +8.7 86 +10 +17 1025.7 798.2
18 12.12 Ю 3 10 км 4/4 800 м
[Sc]
+22.4 +16.1 68 +27 +33 душно 1019.4 796.9 +8.8 +23.8
21 12.12 ЮЗ 3 10 км 4/4 450 м
[Sc]
+22.0 +18.4 80 +27 +30 душно 1014.9 795.2
00 13.12 СЗ 2 6000 м 4/4 300 м
[St]
+17.0 +14.9 87 +17 +17 1014.4 795.8 +5.0 +24.0
12 13.12 СВ 1 3000 м 9/9 50 м
[St]
+9.7 +9.4 98 +9 +9 1020.9 795.9 +9.0 +24.0
15 13.12 ЮЗ 1 1000 м туман ?/? +10.1 +9.4 95 +10 +10 1022.8 797.3
18 13.12 ЮВ 3 10 км 3/3 800 м
[Cu med, cong]
+21.5 +15.1 67 +25 +32 комфорт 1017.1 795.3 +8.8 +22.4
21 13.12 ЮВ 3 10 км ясно +21.7 +17.2 76 +26 +31 душно 1012.4 793.3
00 14.12 ЮВ 3 10 км 8/0
[Ci]
+16.7 +14.3 86 +16 +16 1011.7 793.6 +8.8 +23.6
12 14.12 СЗ 1 3000 м 5/5 50 м
[St]
+11.3 +10.7 96 +11 +11 1019.1 795.6 +10.4 +23.6
15 14.12 штиль 0 10 км 8/0
[Ci]
+13.5 +11.8 89 +13 +19 1021.0 797.5
18 14.12 ЮВ 3 10 км 10/4 500 м
[Cu med, cong Ci]
+20.3 +15.7 75 +23 +29 комфорт 1017.3 796.6 +10.4 +21.3
21 14.12 ЮВ 3 10 км 8/8 400 м
[Frnb]
+19.5 +15.4 77 +22 +23 комфорт 1014.1 795.0
00 15.12 СЗ 3 10 км 9/9 100 м
[Frnb]
+14.5 +13.3 93 +14 +14 1015.0 795.9 +10.4 +21.8
12 15.12 С 1 5000 м 9/9 100 м
[Frnb]
+10.0 +9.0 93 +9 +9 1022.5 797.4 +9.0 +21.8
15 15.12 СВ 1 8000 м 10/10 210 м
[Frnb]
+11.5 +9.7 89 +11 +11 1023.8 798.8
18 15.12 СВ 2 8000 м 10/10 300 м
[Frnb]
+12.8 +10.1 84 +12 +12 1022.5 798.3 +9.0 +13.8
21 15.12 СВ 3 8000 м 8/8 240 м
[Frnb]
+13.8 +11.8 88 +13 +14 1019.6 796.5
00 16.12 С 2 8000 м 8/8 50 м
[Frnb]
+10.8 +10.1 95 +9 +9 1020.5 797.2 +9.0 +14.6
12 16.12 В 3 3000 м 10/10 100 м
[St]
+8.6 +7.6 93 +6 +6 1024.9 1025.0 +8.0 +14.6 798
15 16.12 В 2 8000 м 10/10 210 м
[St]
+10.8 +9.1 89 +9 +9 1025.8 799.6
18 16.12 СВ 2 10 км 5/5 150 м
[St]
+15.8 +14.6 93 +16 +22 1022.1 759.9 +8.0 +18.0
21 16.12 СЗ 2 10 км 8/0 2000 м
[As op Ci]
+17.2 +16.3 94 +18 +22 1017.5 795.8
00 17.12 В 2 10 км 6/3 50 м
[St Ci]
+12.8 +12.5 98 +12 +12 1018.2 796.8 +8.0 +18.4
12 17.12 штиль 0 1000 м туман ?/? +7.4 +7.2 99 +6 +6 1025.0 797.6 +6.8 +18.4
15 17.12 штиль 0 10 км ясно +10.2 +8.5 89 +9 +16 1026.3 799.0
18 17.12 ЮЗ 1 10 км ясно +22.0 +15.7 67 +26 +41 душно 1020.0 797.3 +6.8 +23.0
21 17.12 Ю 2 10 км 3/3 420 м
[Sc]
+21.4 +18.1 81 +26 +30 душно 1014.6 795.0
00 18.12 штиль 0 6000 м ясно +15.0 +14.1 94 +15 +15 1014.9 795.9 +6.8 +24.0
12 18.12 СВ 1 1000 м туман ?/? +8.0 +7.7 98 +7 +7 1022.4 795.9 +7.0 +24.0
15 18.12 ЮЗ 1 1000 м туман ?/? +9.1 +8.6 97 +8 +8 1024.0 797.3
18 18.12 ЮВ 2 10 км 3/3 900 м
[Cu med, cong]
+21.9 +14.6 63 +25 +34 комфорт 1017.6 795.1 +7.0 +22.9
21 18.12 Ю 3 10 км 8/8 300 м
[Frnb]
+21.9 +19.0 84 +27 +28 душно 1012.5 793.2
00 19.12 СВ 2 10 км 8/8 200 м
[Frnb]
+17.3 +15.9 91 +18 +18 1011.7 793.4 +7.0 +24.9

 

Местоположение метеостанции Sn. Cristobal Las Casas (Мексика): широта 16.75 долгота -92.63 высота над уровнем моря 2276 м.

В архиве по умолчанию представлена погода в Sn. Cristobal Las Casas за последнюю неделю. Архивные данные за месяц целиком и за предыдущие месяцы, начиная с января 2011 года, Вы можете получить, выбрав интересующий диапазон дат из раскрывающегося списка и нажав кнопку "Ввод!".


*Определитесь, кто Вы:
робот инопланетянин человек

Внимание! Время в таблицах - всемирное. Для получения местного времени необходимо прибавить поправку, которая в Sn. Cristobal Las Casas равна -6 ч.

Смотрите также архив погоды в соседних городах и на ближайших метеорологических станциях:

Погода в Tuxtla Gutierrez (Мексика) (53 км)
Погода в Comitan (Мексика) (77 км)
Погода в Villahermosa (Мексика) (140 км)
Погода в Arriaga (Мексика) (147 км)
Погода в Huehuetenango (Гватемала) (202 км)
Погода в Tapachula City (Мексика) (208 км)
Погода в Coatzacoalcos (Мексика) (243 км)
Погода в Salina Cruz (Мексика) (280 км)
Погода в Flores (Гватемала) (293 км)
Погода в Guatemala (Гватемала) (331 км)

Пояснения к столбцам:

Ветер - указаны скорость ветра в м/с - средняя за 10 мин, порывы в срок и между сроками (в фигурных скобках) и направление, откуда дует ветер: С - северный, СВ - северо-восточный, В - восточный, ЮВ - юго-восточный, Ю - южный, ЮЗ - юго-западный, З - западный, СЗ - северо-западный.
Видимость - горизонтальная дальность видимости в метрах или километрах. При видимости от 1 до 10 км при отсутствии осадков обычно наблюдается дымка, при ухудшении видимости до 1 км и менее - туман. В сухую погоду видимость может ухудшаться дымом, пылью или мглою.
Явления - указаны атмосферные явления, наблюдавшиеся в срок или в последний час перед сроком; фигурными скобками обозначены явления, наблюдавшиеся между сроками (за 1-3 часа до срока); квадратными скобками обозначены град или гололедные отложения с указанием их диаметра в мм.
Облачность - указаны через наклонную черту общая и нижняя облачность в баллах и высота нижней границы облаков в метрах; квадратными скобками обозначены формы облаков: Ci - перистые, Cs - перисто-слоистые, Cc - перисто-кучевые, Ac - высококучевые, As - высокослоистые, Sc - слоисто-кучевые, Ns - слоисто-дождевые, Cu - кучевые, Cb - кучево-дождевые. Подробнее классификацию облаков см. в Атласе облаков (PDF).
T - Температура воздуха - температура, измеренная на высоте 2 м над землей.
Td - Температура точки росы - температура, при понижении до которой содержащийся в воздухе водяной пар достигнет насыщения.
f - Относительная влажность воздуха - влажноcть воздуха, измеренная на высоте 2 м над землей.
Te - Эффективная температура - температура, которую ощущает одетый по сезону человек в тени. Характеристика душности погоды. При расчете учитывается влияние влажности воздуха и скорости ветра на теплоощущения человека.
Tes - Эффективная температура на солнце - температура, которую ощущает человек, с поправкой на солнечный нагрев. Характеристика знойности погоды. Зависит от высоты солнца над горизонтом, облачности и скорости ветра. Ночью, в пасмурную погоду, а также при ветре 12 м/с и более поправка равна нулю.
P - Атмосферное давление - приведенное к уровню моря атмосферное давление.
Po - Атмосферное давление - измеренное на уровне метеостанции атмосферное давление.
Tmin - Минимальная температура - минимум температуры воздуха на высоте 2 м над землей.
Tmax - Максимальная температура - максимум температуры воздуха на высоте 2 м над землей.
R - Количество осадков - Количество выпавших осадков за период времени, мм. При наведении курсора мыши на число - период времени, за который выпало указанное количество осадков.
R24 - Количество осадков - Количество выпавших осадков за 24 часа, мм.
S - Снежный покров - Высота снежного покрова, см. При наведении курсора мыши на число - состояние снежного покрова и степень покрытия местности в баллах.